UITMSAT-2

Last updated on Fri Sep 04 2026 00:02:05 GMT+0000 (Coordinated Universal Time)

1 67686U 98067YC 26246.07213513 .00118296 00000+0 61825-3 0 9996 2 67686 51.6219 253.8073 0008155 73.8678 286.3220 15.79943093 32553
UTC large
Height (km)
Speed (km/s)
/
Latitude / Longitude
Inclination (degrees)
Orbital Period (minutes)
Azimuth
Elevation
Range (km)
Doppler Factor

Next 0 passes for location: London (51.5072 / 0.1276)

No passes found over London.
UITMSAT-2